RYR1PX EDJA-EGSS

Flight info

Callsign RYR1PX
Flight time 1h 15m
Altitude 37000
Route UMTEX2B/06 UMTEX Y100 TRA L856 HOC/N0460F360 DCT LUL DCT RLP UL613 DIDOR UT10 IRBAL UT421 PIREG UM733 BANVA BANVA1L
Aircraft B738/M-SDE2E3FGHIRWXY/LB1

Departure

Time 2026-05-09 09:41
Airport Memmingen Allgau Airport (EDJA)

Arrival

Time 2026-05-09 10:57
Airport London Stansted Airport (EGSS)
Time Latitude Longitude Altitude Speed Heading
2026-05-09 09:28 47.98865 10.23236 2075 ft 0 kts 44°
2026-05-09 09:34 47.98859 10.23227 2075 ft 2 kts 28°
2026-05-09 09:34 47.98843 10.23222 2075 ft 2 kts 342°
2026-05-09 09:34 47.98825 10.23230 2076 ft 2 kts 12°
2026-05-09 09:36 47.98808 10.23199 2077 ft 0 kts 69°
2026-05-09 09:37 47.98809 10.23202 2077 ft 3 kts 70°
2026-05-09 09:37 47.98831 10.23295 2077 ft 15 kts 71°
2026-05-09 09:37 47.98868 10.23449 2081 ft 16 kts 70°
2026-05-09 09:37 47.98909 10.23622 2074 ft 18 kts 72°
2026-05-09 09:38 47.98852 10.23747 2077 ft 15 kts 146°
2026-05-09 09:38 47.98779 10.23695 2079 ft 13 kts 242°
2026-05-09 09:38 47.98722 10.23550 2081 ft 23 kts 239°
2026-05-09 09:38 47.98618 10.23289 2081 ft 31 kts 239°
2026-05-09 09:39 47.98512 10.23018 2083 ft 29 kts 239°
2026-05-09 09:39 47.98410 10.22766 2086 ft 27 kts 239°
2026-05-09 09:39 47.98362 10.22594 2089 ft 9 kts 228°
2026-05-09 09:39 47.98343 10.22606 2089 ft 3 kts 99°
2026-05-09 09:40 47.98362 10.22652 2088 ft 6 kts 57°
2026-05-09 09:40 47.98389 10.22717 2087 ft 14 kts 58°
2026-05-09 09:40 47.98549 10.23119 2081 ft 84 kts 59°
2026-05-09 09:40 47.98975 10.24192 2072 ft 154 kts 59°
2026-05-09 09:41 47.99586 10.25736 2506 ft 176 kts 58°
2026-05-09 09:41 48.00207 10.27291 3546 ft 174 kts 59°
2026-05-09 09:41 48.00833 10.28882 4292 ft 184 kts 60°
2026-05-09 09:41 48.01507 10.30606 4743 ft 201 kts 60°
2026-05-09 09:42 48.02224 10.32434 5280 ft 203 kts 60°
2026-05-09 09:42 48.02913 10.34186 6157 ft 192 kts 60°
2026-05-09 09:42 48.03615 10.36000 6531 ft 209 kts 64°
2026-05-09 09:42 48.03922 10.38084 6935 ft 210 kts 100°
2026-05-09 09:43 48.03292 10.40027 7225 ft 215 kts 135°
2026-05-09 09:43 48.01953 10.41216 7227 ft 236 kts 171°
2026-05-09 09:43 48.00370 10.40836 7188 ft 240 kts 210°
2026-05-09 09:43 47.98975 10.39440 7140 ft 243 kts 210°
2026-05-09 09:44 47.97497 10.38230 7110 ft 242 kts 212°
2026-05-09 09:44 47.96302 10.36401 7137 ft 261 kts 239°
2026-05-09 09:44 47.95672 10.33698 7161 ft 293 kts 257°
2026-05-09 09:44 47.95266 10.30557 7156 ft 323 kts 259°
2026-05-09 09:45 47.94854 10.27101 7416 ft 340 kts 259°
2026-05-09 09:45 47.94429 10.23574 7614 ft 359 kts 259°
2026-05-09 09:45 47.93968 10.19873 8128 ft 366 kts 259°
2026-05-09 09:45 47.93497 10.16172 9046 ft 360 kts 258°
2026-05-09 09:46 47.93021 10.12504 9916 ft 358 kts 258°
2026-05-09 09:46 47.92547 10.08876 10555 ft 360 kts 258°
2026-05-09 09:46 47.92058 10.05193 11141 ft 364 kts 258°
2026-05-09 09:46 47.91552 10.01477 11735 ft 368 kts 258°
2026-05-09 09:47 47.91039 9.97734 12349 ft 371 kts 258°
2026-05-09 09:47 47.90520 9.93944 12985 ft 374 kts 258°
2026-05-09 09:47 47.89997 9.90131 13634 ft 378 kts 259°
2026-05-09 09:47 47.89468 9.86278 14242 ft 381 kts 259°
2026-05-09 09:48 47.88864 9.82419 14865 ft 384 kts 253°
2026-05-09 09:48 47.87974 9.78660 15531 ft 385 kts 249°
2026-05-09 09:48 47.86975 9.74947 16030 ft 388 kts 249°
2026-05-09 09:48 47.85977 9.71209 16097 ft 388 kts 249°
2026-05-09 09:49 47.85012 9.67453 16098 ft 389 kts 250°
2026-05-09 09:49 47.84051 9.63633 16241 ft 400 kts 250°
2026-05-09 09:49 47.83256 9.59643 16717 ft 404 kts 258°
2026-05-09 09:49 47.82748 9.55530 17390 ft 404 kts 261°
2026-05-09 09:50 47.82585 9.51357 17975 ft 407 kts 274°
2026-05-09 09:50 47.83058 9.47192 18517 ft 410 kts 285°
2026-05-09 09:50 47.84057 9.43207 19009 ft 413 kts 294°
2026-05-09 09:50 47.85290 9.39332 19506 ft 415 kts 295°
2026-05-09 09:51 47.86537 9.35436 19946 ft 419 kts 295°
2026-05-09 09:51 47.87789 9.31506 20407 ft 421 kts 295°
2026-05-09 09:51 47.89041 9.27545 20866 ft 423 kts 294°
2026-05-09 09:51 47.90291 9.23562 21303 ft 426 kts 294°
2026-05-09 09:52 47.91545 9.19540 21709 ft 429 kts 294°
2026-05-09 09:52 47.92801 9.15493 22113 ft 432 kts 294°
2026-05-09 09:52 47.94063 9.11412 22514 ft 434 kts 294°
2026-05-09 09:52 47.95331 9.07305 22918 ft 437 kts 294°
2026-05-09 09:53 47.96603 9.03173 23267 ft 440 kts 295°
2026-05-09 09:53 47.97883 8.99013 23629 ft 442 kts 295°
2026-05-09 09:53 47.99167 8.94829 23932 ft 445 kts 295°
2026-05-09 09:53 48.00458 8.90616 24250 ft 447 kts 295°
2026-05-09 09:54 48.01753 8.86383 24557 ft 449 kts 294°
2026-05-09 09:54 48.03051 8.82135 24842 ft 451 kts 294°
2026-05-09 09:54 48.04354 8.77863 25139 ft 453 kts 294°
2026-05-09 09:54 48.05662 8.73565 25396 ft 455 kts 294°
2026-05-09 09:55 48.06970 8.69261 25666 ft 457 kts 294°
2026-05-09 09:55 48.08289 8.64913 25950 ft 459 kts 294°
2026-05-09 09:55 48.09604 8.60569 26322 ft 458 kts 294°
2026-05-09 09:55 48.10914 8.56236 26752 ft 456 kts 294°
2026-05-09 09:56 48.12215 8.51926 27174 ft 454 kts 294°
2026-05-09 09:56 48.13514 8.47613 27549 ft 454 kts 294°
2026-05-09 09:56 48.14812 8.43298 27903 ft 455 kts 294°
2026-05-09 09:56 48.16108 8.38980 28295 ft 454 kts 294°
2026-05-09 09:57 48.17399 8.34674 28726 ft 452 kts 294°
2026-05-09 09:57 48.18684 8.30377 29122 ft 452 kts 295°
2026-05-09 09:57 48.19968 8.26080 29504 ft 451 kts 295°
2026-05-09 09:57 48.21246 8.21790 29911 ft 451 kts 295°
2026-05-09 09:58 48.22522 8.17503 30264 ft 450 kts 295°
2026-05-09 09:58 48.23794 8.13222 30614 ft 449 kts 295°
2026-05-09 09:58 48.25060 8.08951 30977 ft 447 kts 295°
2026-05-09 09:58 48.26321 8.04693 31329 ft 446 kts 295°
2026-05-09 09:59 48.27577 8.00441 31638 ft 446 kts 294°
2026-05-09 09:59 48.28832 7.96188 31948 ft 445 kts 294°
2026-05-09 09:59 48.30085 7.91933 32288 ft 445 kts 294°
2026-05-09 09:59 48.31331 7.87693 32622 ft 443 kts 294°
2026-05-09 10:00 48.32573 7.83463 32960 ft 442 kts 294°
2026-05-09 10:00 48.33794 7.79295 33245 ft 442 kts 294°
2026-05-09 10:00 48.35029 7.75072 33545 ft 441 kts 294°
2026-05-09 10:00 48.36259 7.70858 33852 ft 440 kts 294°
2026-05-09 10:01 48.37503 7.66590 34149 ft 439 kts 294°
2026-05-09 10:01 48.38710 7.62441 34383 ft 439 kts 294°
2026-05-09 10:01 48.39932 7.58236 34574 ft 439 kts 294°
2026-05-09 10:01 48.41156 7.54014 34771 ft 440 kts 293°
2026-05-09 10:02 48.42375 7.49799 35001 ft 439 kts 293°
2026-05-09 10:02 48.43594 7.45581 35221 ft 439 kts 293°
2026-05-09 10:02 48.44810 7.41366 35429 ft 439 kts 293°
2026-05-09 10:02 48.46024 7.37148 35628 ft 439 kts 293°
2026-05-09 10:03 48.47237 7.32928 35849 ft 438 kts 292°
2026-05-09 10:03 48.48445 7.28720 36071 ft 438 kts 292°
2026-05-09 10:03 48.49656 7.24492 36079 ft 442 kts 292°
2026-05-09 10:04 48.52095 7.15951 36093 ft 444 kts 292°
2026-05-09 10:04 48.54520 7.07430 36075 ft 439 kts 292°
2026-05-09 10:05 48.56919 6.98973 36079 ft 437 kts 292°
2026-05-09 10:05 48.59315 6.90494 36087 ft 443 kts 292°
2026-05-09 10:06 48.61731 6.81915 36079 ft 443 kts 292°
2026-05-09 10:06 48.64130 6.73369 36079 ft 440 kts 292°
2026-05-09 10:07 48.66511 6.64853 36082 ft 440 kts 292°
2026-05-09 10:07 48.68886 6.56327 36087 ft 445 kts 292°
2026-05-09 10:08 48.71292 6.47657 36086 ft 448 kts 291°
2026-05-09 10:08 48.73707 6.38926 36081 ft 450 kts 291°
2026-05-09 10:09 48.76124 6.30156 36084 ft 451 kts 291°
2026-05-09 10:09 48.78532 6.21389 36072 ft 450 kts 291°
2026-05-09 10:10 48.80929 6.12625 36079 ft 449 kts 291°
2026-05-09 10:10 48.83314 6.03872 36071 ft 448 kts 291°
2026-05-09 10:11 48.85685 5.95141 36093 ft 447 kts 291°
2026-05-09 10:11 48.88062 5.86421 36084 ft 447 kts 294°
2026-05-09 10:12 48.90948 5.78027 36214 ft 450 kts 297°
2026-05-09 10:12 48.92475 5.73886 36474 ft 448 kts 298°
2026-05-09 10:12 48.93999 5.69761 36758 ft 446 kts 297°
2026-05-09 10:12 48.95509 5.65641 36992 ft 445 kts 297°
2026-05-09 10:13 48.97006 5.61511 37073 ft 447 kts 297°
2026-05-09 10:13 48.99489 5.54578 37084 ft 449 kts 297°
2026-05-09 10:14 49.02469 5.46183 37071 ft 446 kts 296°
2026-05-09 10:14 49.05381 5.37935 37074 ft 444 kts 296°
2026-05-09 10:15 49.08298 5.29649 37073 ft 442 kts 296°
2026-05-09 10:15 49.11198 5.21386 37071 ft 442 kts 296°
2026-05-09 10:16 49.14097 5.13100 37073 ft 443 kts 296°
2026-05-09 10:16 49.16996 5.04789 37068 ft 444 kts 296°
2026-05-09 10:17 49.19900 4.96436 37076 ft 446 kts 296°
2026-05-09 10:17 49.22809 4.88041 37064 ft 448 kts 296°
2026-05-09 10:18 49.25728 4.79592 37076 ft 450 kts 296°
2026-05-09 10:18 49.28651 4.71101 37065 ft 451 kts 296°
2026-05-09 10:19 49.31577 4.62574 37071 ft 452 kts 296°
2026-05-09 10:19 49.34499 4.54032 37060 ft 453 kts 295°
2026-05-09 10:20 49.37415 4.45479 37064 ft 453 kts 295°
2026-05-09 10:20 49.40324 4.36914 37063 ft 452 kts 295°
2026-05-09 10:21 49.43225 4.28347 37066 ft 452 kts 295°
2026-05-09 10:21 49.46095 4.19844 37049 ft 450 kts 295°
2026-05-09 10:22 49.49332 4.11535 37075 ft 452 kts 303°
2026-05-09 10:22 49.53071 4.03727 37060 ft 454 kts 304°
2026-05-09 10:23 49.56842 3.95917 37074 ft 454 kts 304°
2026-05-09 10:23 49.60540 3.88117 37060 ft 454 kts 304°
2026-05-09 10:24 49.64231 3.80236 37070 ft 454 kts 303°
2026-05-09 10:24 49.67918 3.72319 37061 ft 454 kts 303°
2026-05-09 10:25 49.71597 3.64394 37069 ft 454 kts 303°
2026-05-09 10:25 49.75270 3.56462 37055 ft 454 kts 303°
2026-05-09 10:26 49.78935 3.48525 37066 ft 454 kts 303°
2026-05-09 10:26 49.82607 3.40551 37059 ft 454 kts 303°
2026-05-09 10:27 49.86267 3.32583 37063 ft 454 kts 303°
2026-05-09 10:27 49.89929 3.24606 37052 ft 454 kts 303°
2026-05-09 10:28 49.93586 3.16621 37067 ft 454 kts 303°
2026-05-09 10:28 49.97218 3.08615 37066 ft 454 kts 302°
2026-05-09 10:29 50.00837 3.00582 37076 ft 454 kts 303°
2026-05-09 10:29 50.04471 2.92543 37076 ft 455 kts 303°
2026-05-09 10:30 50.08110 2.84481 37084 ft 455 kts 303°
2026-05-09 10:30 50.11714 2.76466 37074 ft 455 kts 303°
2026-05-09 10:31 50.15331 2.68395 37075 ft 454 kts 302°
2026-05-09 10:31 50.18939 2.60317 37076 ft 454 kts 302°
2026-05-09 10:32 50.22541 2.52228 37068 ft 454 kts 302°
2026-05-09 10:32 50.26138 2.44123 37060 ft 454 kts 302°
2026-05-09 10:33 50.29731 2.36005 37064 ft 454 kts 302°
2026-05-09 10:33 50.33317 2.27878 37062 ft 454 kts 302°
2026-05-09 10:34 50.36897 2.19737 37072 ft 454 kts 302°
2026-05-09 10:34 50.42261 2.07494 37065 ft 454 kts 302°
2026-05-09 10:35 50.45830 1.99317 37073 ft 454 kts 302°
2026-05-09 10:35 50.49394 1.91125 37070 ft 454 kts 302°
2026-05-09 10:36 50.52954 1.82917 37078 ft 454 kts 302°
2026-05-09 10:36 50.56505 1.74704 37072 ft 454 kts 302°
2026-05-09 10:37 50.60046 1.66490 37075 ft 453 kts 302°
2026-05-09 10:37 50.61787 1.62443 37051 ft 439 kts 302°
2026-05-09 10:37 50.63471 1.58529 37061 ft 425 kts 302°
2026-05-09 10:38 50.65099 1.54737 37053 ft 411 kts 302°
2026-05-09 10:38 50.66673 1.51065 37054 ft 397 kts 302°
2026-05-09 10:38 50.69697 1.43983 37084 ft 390 kts 301°
2026-05-09 10:39 50.72755 1.36791 37100 ft 400 kts 301°
2026-05-09 10:39 50.75866 1.29461 37116 ft 409 kts 302°
2026-05-09 10:40 50.79042 1.21963 37115 ft 412 kts 302°
2026-05-09 10:40 50.80634 1.18198 36706 ft 413 kts 302°
2026-05-09 10:40 50.82240 1.14396 35849 ft 420 kts 302°
2026-05-09 10:41 50.83882 1.10497 34906 ft 431 kts 302°
2026-05-09 10:41 50.85563 1.06502 34011 ft 440 kts 302°
2026-05-09 10:41 50.87270 1.02440 32976 ft 447 kts 302°
2026-05-09 10:41 50.89003 0.98311 31959 ft 454 kts 302°
2026-05-09 10:42 50.90762 0.94113 31014 ft 459 kts 302°
2026-05-09 10:42 50.92532 0.89882 30176 ft 462 kts 302°
2026-05-09 10:42 50.94304 0.85640 29512 ft 458 kts 302°
2026-05-09 10:42 50.96045 0.81468 28991 ft 451 kts 302°
2026-05-09 10:43 50.97762 0.77345 28461 ft 444 kts 302°
2026-05-09 10:43 50.99454 0.73276 27854 ft 440 kts 302°
2026-05-09 10:43 51.01130 0.69236 27213 ft 437 kts 302°
2026-05-09 10:43 51.02781 0.65251 26852 ft 424 kts 302°
2026-05-09 10:44 51.04372 0.61408 26348 ft 413 kts 302°
2026-05-09 10:44 51.05953 0.57580 25344 ft 414 kts 302°
2026-05-09 10:44 51.07532 0.53748 24439 ft 414 kts 302°
2026-05-09 10:44 51.09105 0.49925 23599 ft 411 kts 301°
2026-05-09 10:45 51.10667 0.46127 22394 ft 412 kts 301°
2026-05-09 10:46 51.16975 0.30730 17692 ft 410 kts 301°
2026-05-09 10:46 51.18519 0.26947 16564 ft 405 kts 301°
2026-05-09 10:46 51.20052 0.23216 15451 ft 400 kts 304°
2026-05-09 10:46 51.21902 0.19933 14331 ft 398 kts 319°
2026-05-09 10:47 51.24202 0.17509 13250 ft 395 kts 331°
2026-05-09 10:47 51.26735 0.15844 12471 ft 395 kts 340°
2026-05-09 10:47 51.29343 0.14473 11710 ft 394 kts 340°
2026-05-09 10:47 51.31939 0.13100 10952 ft 392 kts 340°
2026-05-09 10:48 51.34519 0.11715 10213 ft 391 kts 340°
2026-05-09 10:48 51.37073 0.10331 9728 ft 382 kts 340°
2026-05-09 10:48 51.39532 0.08989 9460 ft 366 kts 340°
2026-05-09 10:48 51.41907 0.07685 8882 ft 355 kts 340°
2026-05-09 10:49 51.44213 0.06415 8349 ft 346 kts 340°
2026-05-09 10:49 51.46471 0.05168 7840 ft 340 kts 340°
2026-05-09 10:49 51.48694 0.03939 7244 ft 338 kts 341°
2026-05-09 10:49 51.50889 0.02723 6530 ft 338 kts 341°
2026-05-09 10:50 51.53137 0.01480 5886 ft 335 kts 341°
2026-05-09 10:50 51.55316 0.00273 5381 ft 328 kts 341°
2026-05-09 10:50 51.57444 -0.00908 4920 ft 321 kts 341°
2026-05-09 10:50 51.59565 -0.02084 4163 ft 323 kts 341°
2026-05-09 10:51 51.61661 -0.03249 3522 ft 323 kts 341°
2026-05-09 10:51 51.63766 -0.04422 3028 ft 317 kts 342°
2026-05-09 10:51 51.65823 -0.05534 2679 ft 308 kts 348°
2026-05-09 10:51 51.67878 -0.05510 2526 ft 289 kts 19°
2026-05-09 10:52 51.69625 -0.04120 2522 ft 271 kts 34°
2026-05-09 10:52 51.71142 -0.02449 2522 ft 259 kts 39°
2026-05-09 10:52 51.72499 -0.00648 2492 ft 245 kts 44°
2026-05-09 10:52 51.73719 0.01175 2509 ft 235 kts 45°
2026-05-09 10:53 51.74892 0.02959 2452 ft 226 kts 45°
2026-05-09 10:53 51.76014 0.04663 2451 ft 219 kts 45°
2026-05-09 10:53 51.77121 0.06332 2492 ft 218 kts 45°
2026-05-09 10:53 51.78236 0.08016 2502 ft 221 kts 45°
2026-05-09 10:54 51.79359 0.09706 2483 ft 218 kts 45°
2026-05-09 10:54 51.80447 0.11356 2359 ft 216 kts 46°
2026-05-09 10:54 51.81549 0.13004 2076 ft 217 kts 45°
2026-05-09 10:54 51.82629 0.14645 1790 ft 209 kts 45°
2026-05-09 10:55 51.83653 0.16179 1546 ft 193 kts 46°
2026-05-09 10:55 51.84608 0.17624 1287 ft 183 kts 45°
2026-05-09 10:55 51.85510 0.18980 990 ft 170 kts 46°
2026-05-09 10:55 51.86324 0.20224 812 ft 152 kts 46°
2026-05-09 10:56 51.87084 0.21343 537 ft 146 kts 45°
2026-05-09 10:56 51.87832 0.22474 352 ft 147 kts 45°
2026-05-09 10:56 51.88505 0.23487 340 ft 115 kts 43°
2026-05-09 10:56 51.88935 0.24135 336 ft 53 kts 43°
2026-05-09 10:57 51.89088 0.24489 340 ft 30 kts 68°
2026-05-09 10:57 51.89132 0.24671 351 ft 11 kts 69°
2026-05-09 10:57 51.89161 0.24788 345 ft 11 kts 68°
2026-05-09 10:57 51.89166 0.24818 350 ft 0 kts 80°
2026-05-09 10:59 51.89166 0.24826 349 ft 2 kts 85°
2026-05-09 10:59 51.89157 0.24884 354 ft 8 kts 110°
2026-05-09 10:59 51.89195 0.25012 351 ft 18 kts 44°
2026-05-09 10:59 51.89270 0.25186 349 ft 19 kts 53°
2026-05-09 11:00 51.89363 0.25330 355 ft 19 kts 43°
2026-05-09 11:00 51.89470 0.25491 353 ft 22 kts 43°
2026-05-09 11:00 51.89579 0.25655 350 ft 21 kts 42°
2026-05-09 11:00 51.89584 0.25806 353 ft 15 kts 143°
2026-05-09 11:01 51.89500 0.25911 353 ft 17 kts 133°
2026-05-09 11:01 51.89442 0.26013 348 ft 0 kts 132°
2026-05-09 11:01 51.89411 0.26046 354 ft 6 kts 185°
2026-05-09 11:01 51.89378 0.26001 353 ft 6 kts 221°
2026-05-09 11:02 51.89372 0.25993 348 ft 0 kts 221°